Total_Precipitation_Accumulation
0.36 0.49 0.51 0.41 0.38 0.39 0.38 0.43 0.56 0.54 0.57 0.68 0.84 0.90 0.84 0.85 0.77 0.65 0.48 0.43 0.38 0.34 0.33 0.34 0.35 0.38 0.43 0.48 0.53 0.64 0.75 0.79 0.86 1.00 1.19 1.41 1.60 1.77
0.37 0.43 0.54 0.58 0.51 0.48 0.48 0.53 0.66 0.66 0.66 0.72 0.85 0.88 0.77 0.62 0.57 0.58 0.49 0.47 0.42 0.34 0.29 0.29 0.31 0.32 0.31 0.34 0.33 0.34 0.38 0.43 0.48 0.57 0.65 0.78 0.95 1.23
0.51 0.51 0.50 0.62 0.70 0.65 0.63 0.64 0.68 0.74 0.73 0.70 0.83 0.87 0.76 0.57 0.50 0.51 0.52 0.53 0.44 0.39 0.32 0.28 0.29 0.30 0.30 0.31 0.32 0.30 0.28 0.28 0.29 0.33 0.38 0.43 0.49 0.56
0.55 0.71 0.72 0.67 0.65 0.64 0.63 0.64 0.70 0.81 0.82 0.73 0.78 0.86 0.82 0.72 0.61 0.52 0.45 0.46 0.49 0.49 0.42 0.36 0.32 0.31 0.29 0.29 0.29 0.29 0.30 0.29 0.26 0.24 0.24 0.26 0.29 0.33
0.38 0.61 0.80 0.93 0.86 0.67 0.58 0.56 0.64 0.79 0.88 0.83 0.83 0.95 0.98 0.88 0.72 0.56 0.46 0.43 0.42 0.45 0.46 0.41 0.36 0.34 0.32 0.29 0.28 0.27 0.24 0.23 0.23 0.22 0.20 0.19 0.19 0.20
0.26 0.36 0.49 0.70 0.86 0.92 0.79 0.66 0.65 0.73 0.81 0.85 0.96 1.18 1.21 1.09 0.84 0.66 0.58 0.49 0.44 0.38 0.37 0.37 0.36 0.33 0.31 0.31 0.28 0.25 0.24 0.22 0.21 0.22 0.21 0.19 0.18 0.17
0.21 0.26 0.29 0.37 0.50 0.68 0.79 0.84 0.82 0.76 0.80 0.87 1.10 1.52 1.55 1.29 0.92 0.74 0.67 0.64 0.54 0.46 0.39 0.32 0.30 0.27 0.26 0.29 0.31 0.29 0.26 0.23 0.21 0.20 0.20 0.20 0.19 0.18
0.29 0.29 0.26 0.25 0.29 0.39 0.52 0.66 0.81 0.84 0.83 0.88 1.08 1.39 1.55 1.44 1.19 0.99 0.77 0.64 0.58 0.54 0.48 0.44 0.39 0.34 0.29 0.25 0.27 0.28 0.28 0.25 0.22 0.20 0.18 0.18 0.18 0.18
0.38 0.42 0.29 0.19 0.26 0.32 0.39 0.45 0.52 0.63 0.76 0.84 0.98 1.18 1.47 1.60 1.45 1.09 0.92 0.82 0.65 0.59 0.57 0.54 0.51 0.45 0.39 0.34 0.36 0.30 0.29 0.28 0.25 0.22 0.20 0.18 0.16 0.16
0.39 0.43 0.41 0.33 0.33 0.37 0.41 0.40 0.39 0.40 0.47 0.60 0.73 0.96 1.25 1.57 1.72 1.48 1.27 1.12 0.91 0.78 0.64 0.59 0.59 0.52 0.45 0.40 0.43 0.37 0.31 0.31 0.30 0.26 0.23 0.22 0.20 0.18
0.39 0.43 0.47 0.44 0.34 0.29 0.34 0.35 0.36 0.36 0.35 0.41 0.53 0.71 0.97 1.27 1.62 1.74 1.45 1.11 0.96 0.80 0.67 0.58 0.54 0.58 0.57 0.46 0.44 0.47 0.39 0.34 0.33 0.32 0.29 0.27 0.24 0.24
0.54 0.57 0.52 0.45 0.38 0.26 0.29 0.34 0.32 0.31 0.37 0.39 0.41 0.49 0.64 0.89 1.23 1.43 1.42 1.13 0.89 0.78 0.57 0.51 0.49 0.52 0.57 0.50 0.40 0.39 0.39 0.40 0.40 0.36 0.35 0.34 0.33 0.25
0.60 0.70 0.67 0.53 0.38 0.28 0.26 0.29 0.27 0.32 0.40 0.43 0.45 0.49 0.63 0.80 0.97 1.19 1.31 1.22 0.96 0.70 0.57 0.53 0.45 0.46 0.47 0.44 0.42 0.38 0.35 0.35 0.35 0.37 0.38 0.39 0.41 0.35
0.61 0.78 0.83 0.68 0.50 0.37 0.29 0.25 0.23 0.24 0.31 0.37 0.39 0.41 0.49 0.62 0.80 1.06 1.28 1.28 1.13 0.89 0.72 0.67 0.58 0.48 0.41 0.35 0.34 0.36 0.36 0.34 0.34 0.33 0.33 0.43 0.43 0.45
0.56 0.81 0.91 0.79 0.66 0.52 0.41 0.36 0.30 0.26 0.29 0.31 0.30 0.30 0.35 0.47 0.68 1.02 1.36 1.48 1.38 1.13 0.94 0.78 0.66 0.60 0.56 0.42 0.30 0.27 0.31 0.34 0.33 0.33 0.35 0.40 0.40 0.40
0.45 0.59 0.74 0.80 0.74 0.68 0.58 0.46 0.38 0.34 0.32 0.34 0.33 0.37 0.45 0.56 0.69 0.84 1.15 1.39 1.41 1.23 1.04 0.89 0.77 0.73 0.66 0.54 0.41 0.29 0.25 0.29 0.32 0.33 0.37 0.41 0.45 0.44
0.45 0.58 0.74 0.87 0.89 0.86 0.82 0.72 0.61 0.54 0.48 0.45 0.51 0.52 0.57 0.64 0.67 0.77 0.97 1.17 1.17 1.06 0.97 0.95 0.94 0.88 0.80 0.75 0.61 0.40 0.29 0.26 0.27 0.32 0.39 0.44 0.47 0.50
0.35 0.52 0.69 0.86 0.99 1.04 1.07 1.01 0.90 0.81 0.72 0.69 0.71 0.68 0.67 0.72 0.73 0.75 0.88 1.02 1.03 0.98 0.94 0.88 0.94 1.03 0.96 0.80 0.64 0.49 0.36 0.29 0.29 0.35 0.39 0.41 0.43 0.45
0.23 0.42 0.57 0.73 0.91 1.05 1.09 1.05 0.98 0.95 0.96 0.94 0.93 0.89 0.82 0.80 0.83 0.81 0.82 0.94 1.00 0.98 0.98 0.95 0.92 0.90 0.84 0.65 0.47 0.42 0.41 0.37 0.39 0.42 0.44 0.40 0.36 0.38
0.23 0.38 0.52 0.66 0.81 0.98 1.04 1.04 1.06 1.08 1.08 1.04 1.05 1.04 1.01 0.94 0.93 0.90 0.87 0.87 0.96 1.03 1.03 1.00 0.90 0.76 0.64 0.57 0.52 0.46 0.43 0.48 0.50 0.47 0.47 0.48 0.44 0.46
0.32 0.38 0.45 0.57 0.75 0.92 1.05 1.10 1.12 1.11 1.10 1.11 1.11 1.11 1.13 1.06 0.96 0.95 0.99 0.96 0.94 0.98 0.93 0.81 0.77 0.85 0.90 0.88 0.75 0.54 0.45 0.44 0.51 0.53 0.56 0.61 0.56 0.53
0.47 0.51 0.54 0.60 0.78 0.94 1.06 1.15 1.20 1.17 1.13 1.14 1.15 1.15 1.14 1.11 1.00 0.98 1.06 1.04 0.91 0.84 0.84 0.88 1.03 1.15 1.09 0.93 0.68 0.55 0.53 0.54 0.56 0.58 0.58 0.56 0.50 0.43
0.63 0.60 0.55 0.59 0.74 0.90 1.00 1.11 1.20 1.19 1.13 1.10 1.16 1.20 1.13 1.06 1.01 1.02 1.06 1.11 1.05 0.98 1.01 1.04 1.10 1.12 1.05 0.98 0.88 0.72 0.60 0.61 0.64 0.58 0.45 0.40 0.38 0.37